Location: Elende
(51.4317°N, 10.6316°E)
Time: 07:42:48
(UTC+00:00)

CZ-4 R/B - Pass Details

Date: 18 September 2020
Orbit: 530 x 600 km, 97.7° (Epoch: 22 October)

Event Time Altitude Azimuth Distance (km) Brightness Sun altitude
Rises 18:45:27 0° 202° (SSW) 2,839 5.0 -13.2°
Reaches altitude 10° 18:48:03 10° 218° (SW) 1,941 4.3 -13.6°
Maximum altitude 18:51:17 21° 268° (W) 1,363 4.2 -14.1°
Drops below altitude 10° 18:54:31 10° 318° (NW) 1,943 5.1 -14.5°
Sets 18:57:08 0° 335° (NNW) 2,842 5.7 -14.9°
